| time (UTC) | temp F | wind direction | speed knots | gust knots | rain 1hr in | rain 24hr in | rain mn in | humidity % | barometer mb |
| 20260509043448 | 46 | 204 | 8.7 | 10.4 | 0.00 | 0.00 | 0.00 | 57 | 1008.1 |
| 20260509042948 | 46 | 203 | 8.7 | 9.6 | 0.00 | 0.00 | 0.00 | 57 | 1008.4 |
| 20260509042449 | 46 | 202 | 8.7 | 9.6 | 0.00 | 0.00 | 0.00 | 58 | 1008.4 |
| 20260509041948 | 46 | 200 | 7.8 | 8.7 | 0.00 | 0.00 | 0.00 | 58 | 1008.5 |
| 20260509041449 | 46 | 197 | 7.0 | 8.7 | 0.00 | 0.00 | 0.00 | 58 | 1008.6 |
| 20260509040950 | 46 | 197 | 6.1 | 7.8 | 0.00 | 0.00 | 0.00 | 60 | 1008.6 |
| 20260509035949 | 45 | 195 | 4.3 | 5.2 | 0.00 | 0.00 | 0.00 | 60 | 1008.7 |
| 20260509035450 | 45 | 180 | 0.9 | 3.5 | 0.00 | 0.00 | 0.00 | 60 | 1008.7 |
| 20260509034949 | 44 | 179 | 1.7 | 3.5 | 0.00 | 0.00 | 0.00 | 60 | 1008.9 |
| 20260509034447 | 43 | 169 | 1.7 | 3.5 | 0.00 | 0.00 | 0.00 | 61 | 1008.8 |
| 20260509033950 | 42 | 168 | 1.7 | 3.5 | 0.00 | 0.00 | 0.00 | 61 | 1009.0 |
| 20260509033448 | 42 | 168 | 2.6 | 3.5 | 0.00 | 0.00 | 0.00 | 61 | 1009.0 |
| 20260509032947 | 43 | 188 | 2.6 | 2.6 | 0.00 | 0.00 | 0.00 | 60 | 1009.0 |
| 20260509032448 | 43 | 189 | 1.7 | 3.5 | 0.00 | 0.00 | 0.00 | 59 | 1009.1 |
| 20260509031948 | 44 | 189 | 2.6 | 3.5 | 0.00 | 0.00 | 0.00 | 57 | 1009.2 |
| 20260509031448 | 44 | 196 | 1.7 | 2.6 | 0.00 | 0.00 | 0.00 | 55 | 1009.1 |
| 20260509030447 | 47 | 251 | 0.0 | 0.0 | 0.00 | 0.00 | 0.00 | 53 | 1009.2 |
| 20260509025946 | 47 | 251 | 0.0 | 0.0 | 0.00 | 0.00 | 0.00 | 53 | 1009.2 |
| 20260509025445 | 48 | 251 | 0.0 | 0.9 | 0.00 | 0.00 | 0.00 | 52 | 1009.2 |
| 20260509024946 | 48 | 251 | 0.0 | 1.7 | 0.00 | 0.00 | 0.00 | 50 | 1009.2 |
| 20260509024446 | 48 | 251 | 0.9 | 2.6 | 0.00 | 0.00 | 0.00 | 51 | 1009.3 |
| 20260509023943 | 49 | 251 | 1.7 | 2.6 | 0.00 | 0.00 | 0.00 | 51 | 1009.2 |
| 20260509023447 | 49 | 251 | 1.7 | 1.7 | 0.00 | 0.00 | 0.00 | 51 | 1009.3 |
| 20260509022945 | 51 | 251 | 0.0 | 1.7 | 0.00 | 0.00 | 0.00 | 49 | 1009.2 |
| 20260509022447 | 52 | 251 | 0.0 | 3.5 | 0.00 | 0.00 | 0.00 | 46 | 1009.3 |
| 20260509021946 | 53 | 251 | 1.7 | 3.5 | 0.00 | 0.00 | 0.00 | 46 | 1009.3 |
| 20260509021445 | 56 | 326 | 0.0 | 0.0 | 0.00 | 0.00 | 0.00 | 41 | 1009.2 |
| 20260509020946 | 57 | 326 | 0.0 | 0.0 | 0.00 | 0.00 | 0.00 | 38 | 1009.2 |
| 20260509020445 | 58 | 326 | 0.0 | 0.0 | 0.00 | 0.00 | 0.00 | 40 | 1009.3 |
| 20260509015946 | 59 | 326 | 0.0 | 1.7 | 0.00 | 0.00 | 0.00 | 35 | 1009.3 |
| 20260509014944 | 60 | 326 | 1.7 | 2.6 | 0.00 | 0.00 | 0.00 | 35 | 1009.4 |
| 20260509014447 | 60 | 326 | 0.9 | 2.6 | 0.00 | 0.00 | 0.00 | 34 | 1009.3 |
| 20260509013944 | 62 | 326 | 1.7 | 2.6 | 0.00 | 0.00 | 0.00 | 33 | 1009.4 |
| 20260509013444 | 64 | 326 | 0.9 | 2.6 | 0.00 | 0.00 | 0.00 | 32 | 1009.5 |
| 20260509012944 | 65 | 0.0 | 5.2 | 0.00 | 0.00 | 0.00 | 32 | 1009.5 | |
| 20260509011443 | 67 | 329 | 4.3 | 7.8 | 0.00 | 0.00 | 0.00 | 30 | 1009.6 |
| 20260509010945 | 67 | 331 | 4.3 | 7.8 | 0.00 | 0.00 | 0.00 | 28 | 1009.7 |
| 20260509005943 | 68 | 344 | 4.3 | 11.3 | 0.00 | 0.00 | 0.00 | 28 | 1009.7 |
| 20260509005445 | 68 | 354 | 5.2 | 12.2 | 0.00 | 0.00 | 0.00 | 28 | 1009.7 |
| 20260509004943 | 69 | 344 | 7.0 | 12.2 | 0.00 | 0.00 | 0.00 | 27 | 1009.8 |
| 20260509004444 | 69 | 0 | 7.0 | 12.2 | 0.00 | 0.00 | 0.00 | 25 | 1009.7 |
| 20260509003942 | 69 | 355 | 7.8 | 12.2 | 0.00 | 0.00 | 0.00 | 25 | 1009.8 |
| 20260509003440 | 69 | 0 | 7.8 | 13.9 | 0.00 | 0.00 | 0.00 | 25 | 1009.8 |
| 20260509002944 | 69 | 337 | 7.0 | 13.9 | 0.00 | 0.00 | 0.00 | 25 | 1009.6 |
| 20260509002443 | 69 | 0 | 7.0 | 11.3 | 0.00 | 0.00 | 0.00 | 25 | 1009.6 |
| 20260509001944 | 70 | 341 | 5.2 | 14.8 | 0.00 | 0.00 | 0.00 | 26 | 1009.7 |
| 20260509001443 | 70 | 358 | 9.6 | 14.8 | 0.00 | 0.00 | 0.00 | 24 | 1009.7 |
| 20260509000942 | 70 | 0 | 10.4 | 14.8 | 0.00 | 0.00 | 0.00 | 24 | 1009.9 |
| 20260509000443 | 70 | 341 | 9.6 | 15.6 | 0.00 | 0.00 | 0.00 | 24 | 1009.8 |
| 20260508235943 | 70 | 338 | 10.4 | 15.6 | 0.00 | 0.00 | 0.00 | 24 | 1009.9 |
| 20260508235443 | 70 | 327 | 7.8 | 15.6 | 0.00 | 0.00 | 0.00 | 24 | 1009.9 |
| 20260508234943 | 70 | 348 | 8.7 | 18.2 | 0.00 | 0.00 | 0.00 | 23 | 1009.9 |
| 20260508234441 | 70 | 354 | 11.3 | 18.2 | 0.00 | 0.00 | 0.00 | 25 | 1009.9 |
| 20260508233941 | 70 | 324 | 12.2 | 19.1 | 0.00 | 0.00 | 0.00 | 24 | 1009.8 |
| 20260508233442 | 70 | 333 | 13.9 | 20.0 | 0.00 | 0.00 | 0.00 | 25 | 1009.6 |
| 20260508232941 | 71 | 340 | 13.0 | 20.0 | 0.00 | 0.00 | 0.00 | 24 | 1009.9 |
| 20260508232442 | 71 | 358 | 9.6 | 17.4 | 0.00 | 0.00 | 0.00 | 23 | 1010.0 |
| 20260508231438 | 71 | 354 | 12.2 | 16.5 | 0.00 | 0.00 | 0.00 | 22 | 1009.9 |
| 20260508230941 | 71 | 0 | 11.3 | 19.1 | 0.00 | 0.00 | 0.00 | 22 | 1009.9 |
| 20260508230441 | 71 | 316 | 13.0 | 19.1 | 0.00 | 0.00 | 0.00 | 23 | 1009.7 |
| 20260508225440 | 71 | 329 | 13.0 | 18.2 | 0.00 | 0.00 | 0.00 | 22 | 1009.7 |
| 20260508224942 | 71 | 8 | 13.0 | 20.9 | 0.00 | 0.00 | 0.00 | 22 | 1009.7 |
| 20260508224440 | 71 | 0 | 11.3 | 25.2 | 0.00 | 0.00 | 0.00 | 22 | 1009.8 |
| 20260508223940 | 71 | 341 | 15.6 | 25.2 | 0.00 | 0.00 | 0.00 | 22 | 1009.9 |
| 20260508223440 | 72 | 323 | 14.8 | 19.1 | 0.00 | 0.00 | 0.00 | 23 | 1009.8 |
| 20260508222940 | 71 | 331 | 13.0 | 19.1 | 0.00 | 0.00 | 0.00 | 23 | 1009.9 |
| 20260508222441 | 72 | 0 | 8.7 | 19.1 | 0.00 | 0.00 | 0.00 | 23 | 1009.9 |
| 20260508220939 | 71 | 1 | 11.3 | 23.5 | 0.00 | 0.00 | 0.00 | 21 | 1010.0 |
| 20260508215937 | 71 | 320 | 12.2 | 22.6 | 0.00 | 0.00 | 0.00 | 23 | 1009.6 |
| 20260508215438 | 71 | 355 | 11.3 | 23.5 | 0.00 | 0.00 | 0.00 | 23 | 1009.9 |
| 20260508214939 | 71 | 333 | 17.4 | 23.5 | 0.00 | 0.00 | 0.00 | 23 | 1009.7 |
| 20260508214440 | 71 | 351 | 11.3 | 25.2 | 0.00 | 0.00 | 0.00 | 24 | 1009.9 |
| 20260508213939 | 71 | 341 | 13.9 | 25.2 | 0.00 | 0.00 | 0.00 | 23 | 1010.0 |
| 20260508213439 | 72 | 354 | 16.5 | 23.5 | 0.00 | 0.00 | 0.00 | 23 | 1009.9 |
| 20260508211939 | 71 | 44 | 9.6 | 23.5 | 0.00 | 0.00 | 0.00 | 22 | 1009.9 |
| 20260508211438 | 71 | 327 | 15.6 | 29.5 | 0.00 | 0.00 | 0.00 | 22 | 1009.9 |
| 20260508210938 | 71 | 354 | 17.4 | 29.5 | 0.00 | 0.00 | 0.00 | 21 | 1009.9 |
| 20260508210439 | 72 | 330 | 15.6 | 22.6 | 0.00 | 0.00 | 0.00 | 21 | 1009.9 |
| 20260508205937 | 72 | 0 | 13.9 | 26.1 | 0.00 | 0.00 | 0.00 | 23 | 1009.9 |
| 20260508205437 | 72 | 344 | 16.5 | 26.1 | 0.00 | 0.00 | 0.00 | 25 | 1009.6 |
| 20260508204937 | 72 | 347 | 15.6 | 22.6 | 0.00 | 0.00 | 0.00 | 26 | 1009.6 |
| 20260508203937 | 72 | 341 | 16.5 | 26.9 | 0.00 | 0.00 | 0.00 | 26 | 1009.6 |
| 20260508202937 | 72 | 348 | 14.8 | 30.4 | 0.00 | 0.00 | 0.00 | 24 | 1009.6 |
| 20260508202436 | 72 | 324 | 20.9 | 30.4 | 0.00 | 0.00 | 0.00 | 25 | 1009.3 |
| 20260508201938 | 72 | 323 | 14.8 | 28.7 | 0.00 | 0.00 | 0.00 | 26 | 1009.5 |
| 20260508200939 | 72 | 333 | 14.8 | 26.9 | 0.00 | 0.00 | 0.00 | 25 | 1009.5 |
| 20260508200436 | 72 | 314 | 18.2 | 26.9 | 0.00 | 0.00 | 0.00 | 28 | 1009.2 |
| 20260508195936 | 72 | 321 | 15.6 | 25.2 | 0.00 | 0.00 | 0.00 | 30 | 1009.2 |
| 20260508195436 | 71 | 295 | 16.5 | 25.2 | 0.00 | 0.00 | 0.00 | 29 | 1009.2 |
| 20260508194935 | 71 | 319 | 15.6 | 26.9 | 0.00 | 0.00 | 0.00 | 32 | 1009.3 |
| 20260508194436 | 72 | 317 | 19.1 | 27.8 | 0.00 | 0.00 | 0.00 | 32 | 1009.0 |
| 20260508193938 | 72 | 336 | 14.8 | 27.8 | 0.00 | 0.00 | 0.00 | 33 | 1008.9 |
| 20260508193436 | 72 | 348 | 18.2 | 27.8 | 0.00 | 0.00 | 0.00 | 34 | 1009.4 |
| 20260508192435 | 0 | 0 | 16.5 | 26.1 | 0.00 | 0.00 | 0.00 | 1009.4 | |
| 20260508191936 | 71 | 317 | 18.2 | 26.1 | 0.00 | 0.00 | 0.00 | 36 | 1009.2 |
| 20260508190934 | 70 | 329 | 18.2 | 26.1 | 0.00 | 0.00 | 0.00 | 37 | 1009.3 |
| 20260508190434 | 72 | 0 | 15.6 | 25.2 | 0.00 | 0.00 | 0.00 | 37 | 1009.0 |
| 20260508185435 | 72 | 309 | 18.2 | 26.1 | 0.00 | 0.00 | 0.00 | 36 | 1009.0 |
| 20260508184436 | 71 | 298 | 18.2 | 26.1 | 0.00 | 0.00 | 0.00 | 33 | 1008.5 |
| 20260508183936 | 72 | 283 | 18.2 | 26.9 | 0.00 | 0.00 | 0.00 | 36 | 1008.9 |
| 20260508182933 | 72 | 309 | 16.5 | 28.7 | 0.00 | 0.00 | 0.00 | 31 | 1009.1 |
| 20260508182435 | 72 | 316 | 20.9 | 26.9 | 0.00 | 0.00 | 0.00 | 34 | 1009.1 |
| 20260508181933 | 72 | 319 | 20.0 | 27.8 | 0.00 | 0.00 | 0.00 | 34 | 1008.9 |
| 20260508181433 | 72 | 296 | 14.8 | 29.5 | 0.00 | 0.00 | 0.00 | 32 | 1009.0 |
| 20260508180933 | 72 | 286 | 20.0 | 29.5 | 0.00 | 0.00 | 0.00 | 34 | 1008.3 |
| 20260508175934 | 72 | 299 | 13.0 | 25.2 | 0.00 | 0.00 | 0.00 | 35 | 1008.0 |
| 20260508174931 | 71 | 316 | 13.9 | 23.5 | 0.00 | 0.00 | 0.00 | 36 | 1009.1 |
| 20260508174431 | 71 | 327 | 14.8 | 23.5 | 0.00 | 0.00 | 0.00 | 35 | 1009.3 |
| 20260508173433 | 71 | 313 | 16.5 | 25.2 | 0.00 | 0.00 | 0.00 | 37 | 1009.4 |
| 20260508172932 | 71 | 290 | 15.6 | 25.2 | 0.00 | 0.00 | 0.00 | 40 | 1009.3 |
| 20260508172432 | 71 | 286 | 20.0 | 26.9 | 0.00 | 0.00 | 0.00 | 38 | 1009.4 |
| 20260508171933 | 71 | 275 | 20.0 | 26.9 | 0.00 | 0.00 | 0.00 | 39 | 1009.2 |
| 20260508171432 | 71 | 314 | 14.8 | 23.5 | 0.00 | 0.00 | 0.00 | 39 | 1009.4 |
| 20260508170930 | 71 | 288 | 13.0 | 23.5 | 0.00 | 0.00 | 0.00 | 38 | 1009.3 |
| 20260508170430 | 71 | 295 | 13.9 | 20.9 | 0.00 | 0.00 | 0.00 | 36 | 1009.5 |
| 20260508165933 | 71 | 300 | 16.5 | 20.9 | 0.00 | 0.00 | 0.00 | 36 | 1009.6 |
| 20260508165431 | 70 | 293 | 14.8 | 25.2 | 0.00 | 0.00 | 0.00 | 36 | 1009.5 |
| 20260508164932 | 70 | 292 | 18.2 | 25.2 | 0.00 | 0.00 | 0.00 | 35 | 1009.3 |
| 20260508164433 | 70 | 307 | 13.0 | 22.6 | 0.00 | 0.00 | 0.00 | 37 | 1009.7 |
| 20260508163931 | 70 | 293 | 13.9 | 17.4 | 0.00 | 0.00 | 0.00 | 33 | 1009.7 |
| 20260508163430 | 70 | 309 | 11.3 | 16.5 | 0.00 | 0.00 | 0.00 | 36 | 1009.7 |
| 20260508162931 | 69 | 272 | 12.2 | 16.5 | 0.00 | 0.00 | 0.00 | 35 | 1009.7 |
| 20260508162432 | 69 | 296 | 11.3 | 18.2 | 0.00 | 0.00 | 0.00 | 34 | 1009.9 |
| 20260508161931 | 68 | 271 | 11.3 | 18.2 | 0.00 | 0.00 | 0.00 | 35 | 1009.8 |
| 20260508160931 | 68 | 289 | 10.4 | 17.4 | 0.00 | 0.00 | 0.00 | 36 | 1010.0 |
| 20260508160429 | 68 | 276 | 13.0 | 17.4 | 0.00 | 0.00 | 0.00 | 35 | 1009.7 |
| 20260508155931 | 67 | 296 | 13.9 | 16.5 | 0.00 | 0.00 | 0.00 | 37 | 1009.9 |
| 20260508154930 | 66 | 276 | 12.2 | 14.8 | 0.00 | 0.00 | 0.00 | 37 | 1010.1 |
| 20260508154430 | 65 | 298 | 11.3 | 14.8 | 0.00 | 0.00 | 0.00 | 39 | 1010.3 |
| 20260508153928 | 65 | 303 | 9.6 | 13.9 | 0.00 | 0.00 | 0.00 | 40 | 1010.3 |
| 20260508153431 | 65 | 288 | 10.4 | 13.9 | 0.00 | 0.00 | 0.00 | 39 | 1010.3 |
| 20260508152429 | 63 | 295 | 7.8 | 13.0 | 0.00 | 0.00 | 0.00 | 42 | 1010.4 |
| 20260508151929 | 62 | 293 | 8.7 | 13.0 | 0.00 | 0.00 | 0.00 | 41 | 1010.4 |
| 20260508151429 | 0 | 289 | 9.6 | 13.0 | 0.00 | 0.00 | 0.00 | 1010.4 | |
| 20260508150930 | 61 | 288 | 10.4 | 14.8 | 0.00 | 0.00 | 0.00 | 43 | 1010.5 |
| 20260508150427 | 60 | 271 | 8.7 | 14.8 | 0.00 | 0.00 | 0.00 | 44 | 1010.6 |
| 20260508145929 | 60 | 275 | 9.6 | 15.6 | 0.00 | 0.00 | 0.00 | 45 | 1010.3 |
| 20260508145429 | 59 | 279 | 7.8 | 15.6 | 0.00 | 0.00 | 0.00 | 46 | 1010.6 |
| 20260508144429 | 58 | 262 | 8.7 | 13.0 | 0.00 | 0.00 | 0.00 | 46 | 1010.8 |
| 20260508143427 | 56 | 290 | 8.7 | 13.9 | 0.00 | 0.00 | 0.00 | 49 | 1010.9 |
| 20260508142929 | 56 | 279 | 10.4 | 14.8 | 0.00 | 0.00 | 0.00 | 48 | 1010.9 |
| 20260508141928 | 55 | 286 | 8.7 | 13.9 | 0.00 | 0.00 | 0.00 | 52 | 1010.9 |
| 20260508141428 | 54 | 278 | 11.3 | 13.9 | 0.00 | 0.00 | 0.00 | 52 | 1010.7 |
| 20260508140928 | 54 | 286 | 8.7 | 13.0 | 0.00 | 0.00 | 0.00 | 52 | 1010.6 |
| 20260508140428 | 54 | 257 | 9.6 | 13.0 | 0.00 | 0.00 | 0.00 | 52 | 1010.6 |
| 20260508135927 | 53 | 274 | 9.6 | 11.3 | 0.00 | 0.00 | 0.00 | 52 | 1010.6 |
| 20260508134928 | 54 | 292 | 11.3 | 14.8 | 0.00 | 0.00 | 0.00 | 52 | 1010.6 |
| 20260508134427 | 53 | 281 | 11.3 | 14.8 | 0.00 | 0.00 | 0.00 | 52 | 1010.4 |
| 20260508133927 | 53 | 268 | 8.7 | 13.0 | 0.00 | 0.00 | 0.00 | 51 | 1010.6 |
| 20260508133427 | 53 | 289 | 9.6 | 13.0 | 0.00 | 0.00 | 0.00 | 51 | 1010.5 |
| 20260508131925 | 52 | 254 | 5.2 | 7.8 | 0.00 | 0.00 | 0.00 | 53 | 1010.5 |
| 20260508131426 | 51 | 261 | 4.3 | 6.1 | 0.00 | 0.00 | 0.00 | 54 | 1010.5 |
| 20260508130427 | 47 | 316 | 1.7 | 3.5 | 0.00 | 0.00 | 0.00 | 65 | 1010.4 |
| 20260508125925 | 46 | 319 | 1.7 | 2.6 | 0.00 | 0.00 | 0.00 | 65 | 1010.5 |
| 20260508125425 | 44 | 319 | 1.7 | 3.5 | 0.00 | 0.00 | 0.00 | 66 | 1010.5 |
| 20260508124427 | 42 | 319 | 1.7 | 3.5 | 0.00 | 0.00 | 0.00 | 68 | 1010.4 |
| 20260508123925 | 41 | 319 | 1.7 | 3.5 | 0.00 | 0.00 | 0.00 | 69 | 1010.5 |
| 20260508123425 | 40 | 319 | 2.6 | 3.5 | 0.00 | 0.00 | 0.00 | 70 | 1010.3 |
| 20260508122926 | 39 | 319 | 2.6 | 3.5 | 0.00 | 0.00 | 0.00 | 72 | 1010.4 |
| 20260508122424 | 38 | 319 | 3.5 | 3.5 | 0.00 | 0.00 | 0.00 | 73 | 1010.4 |
| 20260508121924 | 37 | 319 | 0.9 | 2.6 | 0.00 | 0.00 | 0.00 | 73 | 1010.0 |
| 20260508121426 | 37 | 319 | 1.7 | 2.6 | 0.00 | 0.00 | 0.00 | 73 | 1010.0 |
| 20260508120925 | 36 | 316 | 0.9 | 0.9 | 0.00 | 0.00 | 0.00 | 72 | 1010.1 |
| 20260508120425 | 35 | 316 | 0.0 | 2.6 | 0.00 | 0.00 | 0.00 | 72 | 1010.1 |
| 20260508115425 | 35 | 316 | 1.7 | 2.6 | 0.00 | 0.00 | 0.00 | 70 | 1010.1 |
| 20260508114925 | 35 | 316 | 1.7 | 2.6 | 0.00 | 0.00 | 0.00 | 68 | 1010.1 |
| 20260508114424 | 36 | 316 | 0.0 | 2.6 | 0.00 | 0.00 | 0.00 | 66 | 1009.9 |
| 20260508113924 | 36 | 316 | 0.0 | 2.6 | 0.00 | 0.00 | 0.00 | 66 | 1009.8 |
| 20260508113424 | 37 | 316 | 0.0 | 0.0 | 0.00 | 0.00 | 0.00 | 64 | 1009.9 |
| 20260508112924 | 37 | 316 | 0.0 | 2.6 | 0.00 | 0.00 | 0.00 | 63 | 1009.8 |
| 20260508112423 | 39 | 316 | 0.9 | 3.5 | 0.00 | 0.00 | 0.00 | 60 | 1009.9 |
| 20260508111423 | 41 | 316 | 3.5 | 5.2 | 0.00 | 0.00 | 0.00 | 56 | 1010.1 |
| 20260508110924 | 42 | 314 | 3.5 | 5.2 | 0.00 | 0.00 | 0.00 | 54 | 1010.1 |
| 20260508110423 | 44 | 306 | 2.6 | 4.3 | 0.00 | 0.00 | 0.00 | 53 | 1010.0 |
| 20260508105424 | 0 | 219 | 2.6 | 3.5 | 0.00 | 0.00 | 0.00 | 1010.1 | |
| 20260508104422 | 44 | 209 | 0.9 | 1.7 | 0.00 | 0.00 | 0.00 | 52 | 1010.0 |
| 20260508103921 | 44 | 209 | 0.9 | 3.5 | 0.00 | 0.00 | 0.00 | 53 | 1010.0 |
| 20260508102423 | 44 | 209 | 3.5 | 4.3 | 0.00 | 0.00 | 0.00 | 53 | 1010.1 |
| 20260508101921 | 44 | 173 | 0.9 | 2.6 | 0.00 | 0.00 | 0.00 | 53 | 1010.1 |
| 20260508101423 | 45 | 173 | 1.7 | 3.5 | 0.00 | 0.00 | 0.00 | 52 | 1010.1 |
| 20260508100924 | 45 | 172 | 0.9 | 3.5 | 0.00 | 0.00 | 0.00 | 51 | 1010.3 |
| 20260508100421 | 46 | 172 | 2.6 | 5.2 | 0.00 | 0.00 | 0.00 | 50 | 1010.3 |
| 20260508095924 | 46 | 172 | 1.7 | 5.2 | 0.00 | 0.00 | 0.00 | 50 | 1010.1 |
| 20260508095423 | 46 | 172 | 3.5 | 4.3 | 0.00 | 0.00 | 0.00 | 50 | 1010.1 |
| 20260508094422 | 46 | 165 | 2.6 | 5.2 | 0.00 | 0.00 | 0.00 | 51 | 1010.1 |
| 20260508093922 | 46 | 164 | 3.5 | 5.2 | 0.00 | 0.00 | 0.00 | 50 | 1009.9 |
| 20260508092922 | 47 | 200 | 3.5 | 4.3 | 0.00 | 0.00 | 0.00 | 49 | 1009.9 |
| 20260508092420 | 48 | 179 | 3.5 | 4.3 | 0.00 | 0.00 | 0.00 | 47 | 1010.0 |
| 20260508091922 | 48 | 189 | 2.6 | 3.5 | 0.00 | 0.00 | 0.00 | 46 | 1010.0 |
| 20260508091421 | 48 | 202 | 2.6 | 3.5 | 0.00 | 0.00 | 0.00 | 48 | 1010.3 |
| 20260508090921 | 48 | 202 | 1.7 | 4.3 | 0.00 | 0.00 | 0.00 | 47 | 1010.1 |
| 20260508090420 | 48 | 202 | 2.6 | 4.3 | 0.00 | 0.00 | 0.00 | 46 | 1010.1 |
| 20260508085921 | 0 | 202 | 2.6 | 6.1 | 0.00 | 0.00 | 0.00 | 1010.3 | |
| 20260508084922 | 48 | 206 | 6.1 | 8.7 | 0.00 | 0.00 | 0.00 | 47 | 1010.4 |
| 20260508084420 | 48 | 206 | 6.1 | 7.8 | 0.00 | 0.00 | 0.00 | 47 | 1010.4 |
| 20260508083919 | 48 | 192 | 4.3 | 6.1 | 0.00 | 0.00 | 0.00 | 47 | 1010.3 |
| 20260508082418 | 47 | 192 | 5.2 | 7.8 | 0.00 | 0.00 | 0.00 | 49 | 1010.5 |
| 20260508081919 | 45 | 202 | 5.2 | 7.8 | 0.00 | 0.00 | 0.00 | 52 | 1010.6 |
| 20260508081419 | 44 | 199 | 7.0 | 7.8 | 0.00 | 0.00 | 0.00 | 54 | 1010.6 |
| 20260508080418 | 42 | 195 | 5.2 | 6.1 | 0.00 | 0.00 | 0.00 | 54 | 1010.7 |
| 20260508075919 | 42 | 189 | 5.2 | 6.1 | 0.00 | 0.00 | 0.00 | 54 | 1010.7 |
| 20260508075420 | 42 | 193 | 5.2 | 6.1 | 0.00 | 0.00 | 0.00 | 53 | 1010.6 |
| 20260508074919 | 42 | 193 | 5.2 | 6.1 | 0.00 | 0.00 | 0.00 | 53 | 1010.7 |
| 20260508074418 | 42 | 193 | 4.3 | 6.1 | 0.00 | 0.00 | 0.00 | 53 | 1010.7 |
| 20260508073919 | 42 | 193 | 3.5 | 6.1 | 0.00 | 0.00 | 0.00 | 52 | 1010.7 |
| 20260508073418 | 42 | 193 | 4.3 | 7.8 | 0.00 | 0.00 | 0.00 | 52 | 1010.7 |
| 20260508072917 | 42 | 192 | 5.2 | 8.7 | 0.00 | 0.00 | 0.00 | 52 | 1010.7 |
| 20260508071917 | 0 | 189 | 5.2 | 7.8 | 0.00 | 0.00 | 0.00 | 1010.7 | |
| 20260508071419 | 43 | 176 | 3.5 | 5.2 | 0.00 | 0.00 | 0.00 | 51 | 1010.7 |
| 20260508070918 | 43 | 137 | 1.7 | 3.5 | 0.00 | 0.00 | 0.00 | 50 | 1010.8 |
| 20260508070417 | 44 | 135 | 1.7 | 4.3 | 0.00 | 0.00 | 0.00 | 49 | 1010.8 |
| 20260508065917 | 44 | 0 | 2.6 | 4.3 | 0.00 | 0.00 | 0.00 | 49 | 1010.9 |
| 20260508065417 | 44 | 135 | 1.7 | 2.6 | 0.00 | 0.00 | 0.00 | 49 | 1010.9 |
| 20260508064917 | 44 | 135 | 1.7 | 4.3 | 0.00 | 0.00 | 0.00 | 49 | 1010.9 |
| 20260508064417 | 44 | 135 | 3.5 | 4.3 | 0.00 | 0.00 | 0.00 | 49 | 1010.9 |
| 20260508063917 | 44 | 127 | 2.6 | 4.3 | 0.00 | 0.00 | 0.00 | 50 | 1010.9 |
| 20260508062917 | 43 | 127 | 1.7 | 3.5 | 0.00 | 0.00 | 0.00 | 53 | 1011.1 |
| 20260508062417 | 42 | 127 | 2.6 | 3.5 | 0.00 | 0.00 | 0.00 | 57 | 1011.0 |
| 20260508061415 | 44 | 96 | 3.5 | 3.5 | 0.00 | 0.00 | 0.00 | 56 | 1011.1 |
| 20260508060415 | 44 | 94 | 3.5 | 4.3 | 0.00 | 0.00 | 0.00 | 56 | 1011.1 |
| 20260508055917 | 44 | 93 | 3.5 | 4.3 | 0.00 | 0.00 | 0.00 | 56 | 1011.1 |
| 20260508055416 | 44 | 93 | 3.5 | 3.5 | 0.00 | 0.00 | 0.00 | 55 | 1011.2 |
| 20260508054915 | 45 | 93 | 3.5 | 3.5 | 0.00 | 0.00 | 0.00 | 56 | 1011.1 |
| 20260508054416 | 45 | 93 | 2.6 | 3.5 | 0.00 | 0.00 | 0.00 | 56 | 1011.2 |
| 20260508053915 | 45 | 93 | 2.6 | 3.5 | 0.00 | 0.00 | 0.00 | 57 | 1011.2 |
| 20260508053414 | 45 | 93 | 2.6 | 3.5 | 0.00 | 0.00 | 0.00 | 57 | 1011.3 |
| 20260508052914 | 45 | 93 | 2.6 | 3.5 | 0.00 | 0.00 | 0.00 | 58 | 1011.3 |
| 20260508052415 | 44 | 93 | 2.6 | 3.5 | 0.00 | 0.00 | 0.00 | 58 | 1011.3 |
| 20260508051914 | 44 | 93 | 3.5 | 3.5 | 0.00 | 0.00 | 0.00 | 59 | 1011.3 |
| 20260508050915 | 44 | 93 | 2.6 | 4.3 | 0.00 | 0.00 | 0.00 | 60 | 1011.4 |
| 20260508050415 | 44 | 93 | 3.5 | 4.3 | 0.00 | 0.00 | 0.00 | 60 | 1011.3 |
| 20260508045913 | 44 | 93 | 3.5 | 4.3 | 0.00 | 0.00 | 0.00 | 59 | 1011.3 |
| 20260508045415 | 44 | 90 | 3.5 | 4.3 | 0.00 | 0.00 | 0.00 | 59 | 1011.3 |
| 20260508044913 | 44 | 87 | 4.3 | 4.3 | 0.00 | 0.00 | 0.00 | 60 | 1011.4 |
| 20260508044414 | 43 | 86 | 3.5 | 4.3 | 0.00 | 0.00 | 0.00 | 62 | 1011.4 |